"Projectnaam";"Meetpunt";"Peildatum";"GWS"
"Vijverwijk Veghel";"VEGH009_2_G";"2022-11-10 12:00:00";"8.63"
"Vijverwijk Veghel";"VEGH009_2_G";"2022-11-10 13:00:00";"8.63"
"Vijverwijk Veghel";"VEGH009_2_G";"2022-11-10 14:00:00";"8.63"
"Vijverwijk Veghel";"VEGH009_2_G";"2022-11-10 15:00:00";"8.63"
"Vijverwijk Veghel";"VEGH009_2_G";"2022-11-10 16:00:00";"8.63"
"Vijverwijk Veghel";"VEGH009_2_G";"2022-11-10 17:00:00";"8.63"
"Vijverwijk Veghel";"VEGH009_2_G";"2022-11-10 18:00:00";"8.63"
"Vijverwijk Veghel";"VEGH009_2_G";"2022-11-10 19:00:00";"8.63"
"Vijverwijk Veghel";"VEGH009_2_G";"2022-11-10 20:00:00";"8.63"
"Vijverwijk Veghel";"VEGH009_2_G";"2022-11-10 21:00:00";"8.63"
"Vijverwijk Veghel";"VEGH009_2_G";"2022-11-10 22:00:00";"8.62"
"Vijverwijk Veghel";"VEGH009_2_G";"2022-11-10 23:00:00";"8.63"
"Vijverwijk Veghel";"VEGH009_2_G";"2022-11-11 00:00:00";"8.62"
"Vijverwijk Veghel";"VEGH009_2_G";"2022-11-11 01:00:00";"8.62"
"Vijverwijk Veghel";"VEGH009_2_G";"2022-11-11 03:00:00";"8.62"
"Vijverwijk Veghel";"VEGH009_2_G";"2022-11-11 04:00:00";"8.62"
"Vijverwijk Veghel";"VEGH009_2_G";"2022-11-11 05:00:00";"8.62"
"Vijverwijk Veghel";"VEGH009_2_G";"2022-11-11 06:00:00";"8.62"
"Vijverwijk Veghel";"VEGH009_2_G";"2022-11-11 07:00:00";"8.62"
"Vijverwijk Veghel";"VEGH009_2_G";"2022-11-11 08:00:00";"8.62"
"Vijverwijk Veghel";"VEGH009_2_G";"2022-11-11 09:00:00";"8.62"
"Vijverwijk Veghel";"VEGH009_2_G";"2022-11-11 10:00:00";"8.62"
"Vijverwijk Veghel";"VEGH009_2_G";"2022-11-11 11:00:00";"8.62"
"Vijverwijk Veghel";"VEGH009_2_G";"2022-11-11 12:00:00";"8.62"
"Vijverwijk Veghel";"VEGH009_2_G";"2022-11-11 13:00:00";"8.62"
"Vijverwijk Veghel";"VEGH009_2_G";"2022-11-11 14:00:00";"8.62"
"Vijverwijk Veghel";"VEGH009_2_G";"2022-11-11 15:00:00";"8.62"
"Vijverwijk Veghel";"VEGH009_2_G";"2022-11-11 16:00:00";"8.62"
"Vijverwijk Veghel";"VEGH009_2_G";"2022-11-11 17:00:00";"8.62"
"Vijverwijk Veghel";"VEGH009_2_G";"2022-11-11 19:00:00";"8.62"
"Vijverwijk Veghel";"VEGH009_2_G";"2022-11-11 20:00:00";"8.62"
"Vijverwijk Veghel";"VEGH009_2_G";"2022-11-11 21:00:00";"8.62"
"Vijverwijk Veghel";"VEGH009_2_G";"2022-11-11 22:00:00";"8.62"
"Vijverwijk Veghel";"VEGH009_2_G";"2022-11-11 23:00:00";"8.62"
"Vijverwijk Veghel";"VEGH009_2_G";"2022-11-12 00:00:00";"8.62"
"Vijverwijk Veghel";"VEGH009_2_G";"2022-11-12 01:00:00";"8.62"
"Vijverwijk Veghel";"VEGH009_2_G";"2022-11-12 02:00:00";"8.62"
"Vijverwijk Veghel";"VEGH009_2_G";"2022-11-12 03:00:00";"8.62"
"Vijverwijk Veghel";"VEGH009_2_G";"2022-11-12 04:00:00";"8.62"
"Vijverwijk Veghel";"VEGH009_2_G";"2022-11-12 05:00:00";"8.62"
"Vijverwijk Veghel";"VEGH009_2_G";"2022-11-12 06:00:00";"8.62"
"Vijverwijk Veghel";"VEGH009_2_G";"2022-11-12 07:00:00";"8.62"
"Vijverwijk Veghel";"VEGH009_2_G";"2022-11-12 08:00:00";"8.62"
"Vijverwijk Veghel";"VEGH009_2_G";"2022-11-12 09:00:00";"8.62"
"Vijverwijk Veghel";"VEGH009_2_G";"2022-11-12 10:00:00";"8.62"
"Vijverwijk Veghel";"VEGH009_2_G";"2022-11-12 11:00:00";"8.62"
"Vijverwijk Veghel";"VEGH009_2_G";"2022-11-12 12:00:00";"8.62"
"Vijverwijk Veghel";"VEGH009_2_G";"2022-11-12 13:00:00";"8.62"
"Vijverwijk Veghel";"VEGH009_2_G";"2022-11-12 14:00:00";"8.62"
"Vijverwijk Veghel";"VEGH009_2_G";"2022-11-12 15:00:00";"8.62"
"Vijverwijk Veghel";"VEGH009_2_G";"2022-11-12 16:00:00";"8.62"
"Vijverwijk Veghel";"VEGH009_2_G";"2022-11-12 17:00:00";"8.62"
"Vijverwijk Veghel";"VEGH009_2_G";"2022-11-12 18:00:00";"8.62"
"Vijverwijk Veghel";"VEGH009_2_G";"2022-11-12 19:00:00";"8.62"
"Vijverwijk Veghel";"VEGH009_2_G";"2022-11-12 20:00:00";"8.62"
"Vijverwijk Veghel";"VEGH009_2_G";"2022-11-12 22:00:00";"8.62"
"Vijverwijk Veghel";"VEGH009_2_G";"2022-11-12 23:00:00";"8.62"
"Vijverwijk Veghel";"VEGH009_2_G";"2022-11-13 00:00:00";"8.62"
"Vijverwijk Veghel";"VEGH009_2_G";"2022-11-13 01:00:00";"8.62"
"Vijverwijk Veghel";"VEGH009_2_G";"2022-11-13 02:00:00";"8.62"
"Vijverwijk Veghel";"VEGH009_2_G";"2022-11-13 03:00:00";"8.62"
"Vijverwijk Veghel";"VEGH009_2_G";"2022-11-13 04:00:00";"8.62"
"Vijverwijk Veghel";"VEGH009_2_G";"2022-11-13 05:00:00";"8.62"
"Vijverwijk Veghel";"VEGH009_2_G";"2022-11-13 06:00:00";"8.62"
"Vijverwijk Veghel";"VEGH009_2_G";"2022-11-13 07:00:00";"8.62"
"Vijverwijk Veghel";"VEGH009_2_G";"2022-11-13 08:00:00";"8.62"
"Vijverwijk Veghel";"VEGH009_2_G";"2022-11-13 09:00:00";"8.62"
"Vijverwijk Veghel";"VEGH009_2_G";"2022-11-13 10:00:00";"8.62"
"Vijverwijk Veghel";"VEGH009_2_G";"2022-11-13 11:00:00";"8.62"
"Vijverwijk Veghel";"VEGH009_2_G";"2022-11-13 12:00:00";"8.63"
"Vijverwijk Veghel";"VEGH009_2_G";"2022-11-13 13:00:00";"8.63"
"Vijverwijk Veghel";"VEGH009_2_G";"2022-11-13 14:00:00";"8.62"
"Vijverwijk Veghel";"VEGH009_2_G";"2022-11-13 15:00:00";"8.62"
"Vijverwijk Veghel";"VEGH009_2_G";"2022-11-13 16:00:00";"8.63"
"Vijverwijk Veghel";"VEGH009_2_G";"2022-11-13 17:00:00";"8.62"
"Vijverwijk Veghel";"VEGH009_2_G";"2022-11-13 18:00:00";"8.62"
"Vijverwijk Veghel";"VEGH009_2_G";"2022-11-13 19:00:00";"8.62"
"Vijverwijk Veghel";"VEGH009_2_G";"2022-11-13 20:00:00";"8.63"
"Vijverwijk Veghel";"VEGH009_2_G";"2022-11-13 22:00:00";"8.63"
"Vijverwijk Veghel";"VEGH009_2_G";"2022-11-13 23:00:00";"8.63"
"Vijverwijk Veghel";"VEGH009_2_G";"2022-11-14 00:00:00";"8.63"
"Vijverwijk Veghel";"VEGH009_2_G";"2022-11-14 01:00:00";"8.63"
"Vijverwijk Veghel";"VEGH009_2_G";"2022-11-14 02:00:00";"8.63"
"Vijverwijk Veghel";"VEGH009_2_G";"2022-11-14 03:00:00";"8.63"
"Vijverwijk Veghel";"VEGH009_2_G";"2022-11-14 04:00:00";"8.63"
"Vijverwijk Veghel";"VEGH009_2_G";"2022-11-14 05:00:00";"8.63"
"Vijverwijk Veghel";"VEGH009_2_G";"2022-11-14 06:00:00";"8.63"
"Vijverwijk Veghel";"VEGH009_2_G";"2022-11-14 07:00:00";"8.63"
"Vijverwijk Veghel";"VEGH009_2_G";"2022-11-14 08:00:00";"8.63"
"Vijverwijk Veghel";"VEGH009_2_G";"2022-11-14 09:00:00";"8.62"
"Vijverwijk Veghel";"VEGH009_2_G";"2022-11-14 10:00:00";"8.62"
"Vijverwijk Veghel";"VEGH009_2_G";"2022-11-14 11:00:00";"8.62"
"Vijverwijk Veghel";"VEGH009_2_G";"2022-11-14 12:00:00";"8.62"
"Vijverwijk Veghel";"VEGH009_2_G";"2022-11-14 13:00:00";"8.62"
"Vijverwijk Veghel";"VEGH009_2_G";"2022-11-14 14:00:00";"8.62"
"Vijverwijk Veghel";"VEGH009_2_G";"2022-11-14 15:00:00";"8.62"
"Vijverwijk Veghel";"VEGH009_2_G";"2022-11-14 16:00:00";"8.62"
"Vijverwijk Veghel";"VEGH009_2_G";"2022-11-14 17:00:00";"8.62"
"Vijverwijk Veghel";"VEGH009_2_G";"2022-11-14 18:00:00";"8.62"
"Vijverwijk Veghel";"VEGH009_2_G";"2022-11-14 19:00:00";"8.62"
"Vijverwijk Veghel";"VEGH009_2_G";"2022-11-14 21:00:00";"8.62"
"Vijverwijk Veghel";"VEGH009_2_G";"2022-11-14 22:00:00";"8.62"
"Vijverwijk Veghel";"VEGH009_2_G";"2022-11-14 23:00:00";"8.62"
"Vijverwijk Veghel";"VEGH009_2_G";"2022-11-15 00:00:00";"8.62"
"Vijverwijk Veghel";"VEGH009_2_G";"2022-11-15 01:00:00";"8.62"
"Vijverwijk Veghel";"VEGH009_2_G";"2022-11-15 02:00:00";"8.62"
"Vijverwijk Veghel";"VEGH009_2_G";"2022-11-15 04:00:00";"8.62"
"Vijverwijk Veghel";"VEGH009_2_G";"2022-11-15 05:00:00";"8.62"
"Vijverwijk Veghel";"VEGH009_2_G";"2022-11-15 06:00:00";"8.62"
"Vijverwijk Veghel";"VEGH009_2_G";"2022-11-15 07:00:00";"8.62"
"Vijverwijk Veghel";"VEGH009_2_G";"2022-11-15 08:00:00";"8.62"
"Vijverwijk Veghel";"VEGH009_2_G";"2022-11-15 09:00:00";"8.62"
"Vijverwijk Veghel";"VEGH009_2_G";"2022-11-15 10:00:00";"8.62"
"Vijverwijk Veghel";"VEGH009_2_G";"2022-11-15 11:00:00";"8.62"
"Vijverwijk Veghel";"VEGH009_2_G";"2022-11-15 12:00:00";"8.62"
"Vijverwijk Veghel";"VEGH009_2_G";"2022-11-15 13:00:00";"8.63"
"Vijverwijk Veghel";"VEGH009_2_G";"2022-11-15 14:00:00";"8.63"
"Vijverwijk Veghel";"VEGH009_2_G";"2022-11-15 15:00:00";"8.63"
"Vijverwijk Veghel";"VEGH009_2_G";"2022-11-15 16:00:00";"8.63"
"Vijverwijk Veghel";"VEGH009_2_G";"2022-11-15 17:00:00";"8.63"
"Vijverwijk Veghel";"VEGH009_2_G";"2022-11-15 18:00:00";"8.63"
"Vijverwijk Veghel";"VEGH009_2_G";"2022-11-15 19:00:00";"8.63"
"Vijverwijk Veghel";"VEGH009_2_G";"2022-11-15 20:00:00";"8.63"
"Vijverwijk Veghel";"VEGH009_2_G";"2022-11-15 21:00:00";"8.63"
"Vijverwijk Veghel";"VEGH009_2_G";"2022-11-15 22:00:00";"8.63"
"Vijverwijk Veghel";"VEGH009_2_G";"2022-11-15 23:00:00";"8.63"
"Vijverwijk Veghel";"VEGH009_2_G";"2022-11-16 00:00:00";"8.63"
"Vijverwijk Veghel";"VEGH009_2_G";"2022-11-16 01:00:00";"8.63"
"Vijverwijk Veghel";"VEGH009_2_G";"2022-11-16 02:00:00";"8.64"
"Vijverwijk Veghel";"VEGH009_2_G";"2022-11-16 03:00:00";"8.66"
"Vijverwijk Veghel";"VEGH009_2_G";"2022-11-16 04:00:00";"8.67"
"Vijverwijk Veghel";"VEGH009_2_G";"2022-11-16 05:00:00";"8.67"
"Vijverwijk Veghel";"VEGH009_2_G";"2022-11-16 06:00:00";"8.67"
"Vijverwijk Veghel";"VEGH009_2_G";"2022-11-16 07:00:00";"8.67"
"Vijverwijk Veghel";"VEGH009_2_G";"2022-11-16 08:00:00";"8.67"
"Vijverwijk Veghel";"VEGH009_2_G";"2022-11-16 09:00:00";"8.66"
"Vijverwijk Veghel";"VEGH009_2_G";"2022-11-16 10:00:00";"8.66"
"Vijverwijk Veghel";"VEGH009_2_G";"2022-11-16 11:00:00";"8.66"
"Vijverwijk Veghel";"VEGH009_2_G";"2022-11-16 12:00:00";"8.66"
"Vijverwijk Veghel";"VEGH009_2_G";"2022-11-16 13:00:00";"8.66"
"Vijverwijk Veghel";"VEGH009_2_G";"2022-11-16 14:00:00";"8.66"
"Vijverwijk Veghel";"VEGH009_2_G";"2022-11-16 15:00:00";"8.66"
"Vijverwijk Veghel";"VEGH009_2_G";"2022-11-16 17:00:00";"8.66"
"Vijverwijk Veghel";"VEGH009_2_G";"2022-11-16 18:00:00";"8.66"
"Vijverwijk Veghel";"VEGH009_2_G";"2022-11-16 19:00:00";"8.66"
"Vijverwijk Veghel";"VEGH009_2_G";"2022-11-16 20:00:00";"8.66"
"Vijverwijk Veghel";"VEGH009_2_G";"2022-11-16 21:00:00";"8.66"
"Vijverwijk Veghel";"VEGH009_2_G";"2022-11-16 22:00:00";"8.66"
"Vijverwijk Veghel";"VEGH009_2_G";"2022-11-17 00:00:00";"8.67"
"Vijverwijk Veghel";"VEGH009_2_G";"2022-11-17 01:00:00";"8.68"
"Vijverwijk Veghel";"VEGH009_2_G";"2022-11-17 02:00:00";"8.7"
"Vijverwijk Veghel";"VEGH009_2_G";"2022-11-17 03:00:00";"8.73"
"Vijverwijk Veghel";"VEGH009_2_G";"2022-11-17 04:00:00";"8.74"
"Vijverwijk Veghel";"VEGH009_2_G";"2022-11-17 05:00:00";"8.73"
"Vijverwijk Veghel";"VEGH009_2_G";"2022-11-17 07:00:00";"8.74"
"Vijverwijk Veghel";"VEGH009_2_G";"2022-11-17 08:00:00";"8.75"
"Vijverwijk Veghel";"VEGH009_2_G";"2022-11-17 09:00:00";"8.75"
"Vijverwijk Veghel";"VEGH009_2_G";"2022-11-17 10:00:00";"8.75"
"Vijverwijk Veghel";"VEGH009_2_G";"2022-11-17 11:00:00";"8.75"
"Vijverwijk Veghel";"VEGH009_2_G";"2022-11-17 12:00:00";"8.75"
"Vijverwijk Veghel";"VEGH009_2_G";"2022-11-17 13:00:00";"8.75"
"Vijverwijk Veghel";"VEGH009_2_G";"2022-11-17 14:00:00";"8.75"
"Vijverwijk Veghel";"VEGH009_2_G";"2022-11-17 15:00:00";"8.75"
"Vijverwijk Veghel";"VEGH009_2_G";"2022-11-17 16:00:00";"8.74"
"Vijverwijk Veghel";"VEGH009_2_G";"2022-11-17 17:00:00";"8.74"
"Vijverwijk Veghel";"VEGH009_2_G";"2022-11-17 18:00:00";"8.74"
"Vijverwijk Veghel";"VEGH009_2_G";"2022-11-17 19:00:00";"8.74"
"Vijverwijk Veghel";"VEGH009_2_G";"2022-11-17 20:00:00";"8.74"
"Vijverwijk Veghel";"VEGH009_2_G";"2022-11-17 22:00:00";"8.74"
"Vijverwijk Veghel";"VEGH009_2_G";"2022-11-17 23:00:00";"8.74"
"Vijverwijk Veghel";"VEGH009_2_G";"2022-11-18 00:00:00";"8.74"
"Vijverwijk Veghel";"VEGH009_2_G";"2022-11-18 01:00:00";"8.74"
"Vijverwijk Veghel";"VEGH009_2_G";"2022-11-18 02:00:00";"8.74"
"Vijverwijk Veghel";"VEGH009_2_G";"2022-11-18 03:00:00";"8.74"
"Vijverwijk Veghel";"VEGH009_2_G";"2022-11-18 04:00:00";"8.73"
"Vijverwijk Veghel";"VEGH009_2_G";"2022-11-18 05:00:00";"8.74"
"Vijverwijk Veghel";"VEGH009_2_G";"2022-11-18 06:00:00";"8.74"
"Vijverwijk Veghel";"VEGH009_2_G";"2022-11-18 07:00:00";"8.74"
"Vijverwijk Veghel";"VEGH009_2_G";"2022-11-18 09:00:00";"8.73"
"Vijverwijk Veghel";"VEGH009_2_G";"2022-11-18 10:00:00";"8.73"
"Vijverwijk Veghel";"VEGH009_2_G";"2022-11-18 11:00:00";"8.73"
"Vijverwijk Veghel";"VEGH009_2_G";"2022-11-18 12:00:00";"8.73"
"Vijverwijk Veghel";"VEGH009_2_G";"2022-11-18 13:00:00";"8.74"
"Vijverwijk Veghel";"VEGH009_2_G";"2022-11-18 15:00:00";"8.73"
"Vijverwijk Veghel";"VEGH009_2_G";"2022-11-18 16:00:00";"8.74"
"Vijverwijk Veghel";"VEGH009_2_G";"2022-11-18 17:00:00";"8.74"
"Vijverwijk Veghel";"VEGH009_2_G";"2022-11-18 18:00:00";"8.74"
"Vijverwijk Veghel";"VEGH009_2_G";"2022-11-18 20:00:00";"8.75"
"Vijverwijk Veghel";"VEGH009_2_G";"2022-11-18 21:00:00";"8.78"
"Vijverwijk Veghel";"VEGH009_2_G";"2022-11-18 22:00:00";"8.79"
"Vijverwijk Veghel";"VEGH009_2_G";"2022-11-19 00:00:00";"8.78"
"Vijverwijk Veghel";"VEGH009_2_G";"2022-11-19 01:00:00";"8.78"
"Vijverwijk Veghel";"VEGH009_2_G";"2022-11-19 03:00:00";"8.77"
"Vijverwijk Veghel";"VEGH009_2_G";"2022-11-19 04:00:00";"8.77"
"Vijverwijk Veghel";"VEGH009_2_G";"2022-11-19 05:00:00";"8.77"
"Vijverwijk Veghel";"VEGH009_2_G";"2022-11-19 06:00:00";"8.77"
"Vijverwijk Veghel";"VEGH009_2_G";"2022-11-19 07:00:00";"8.77"
"Vijverwijk Veghel";"VEGH009_2_G";"2022-11-19 08:00:00";"8.77"
"Vijverwijk Veghel";"VEGH009_2_G";"2022-11-19 09:00:00";"8.77"
"Vijverwijk Veghel";"VEGH009_2_G";"2022-11-19 10:00:00";"8.77"
"Vijverwijk Veghel";"VEGH009_2_G";"2022-11-19 11:00:00";"8.77"
"Vijverwijk Veghel";"VEGH009_2_G";"2022-11-19 14:00:00";"8.77"
"Vijverwijk Veghel";"VEGH009_2_G";"2022-11-19 15:00:00";"8.77"
"Vijverwijk Veghel";"VEGH009_2_G";"2022-11-19 16:00:00";"8.77"
"Vijverwijk Veghel";"VEGH009_2_G";"2022-11-19 18:00:00";"8.77"
"Vijverwijk Veghel";"VEGH009_2_G";"2022-11-19 19:00:00";"8.77"
"Vijverwijk Veghel";"VEGH009_2_G";"2022-11-19 21:00:00";"8.77"
"Vijverwijk Veghel";"VEGH009_2_G";"2022-11-19 22:00:00";"8.77"
"Vijverwijk Veghel";"VEGH009_2_G";"2022-11-19 23:00:00";"8.77"
"Vijverwijk Veghel";"VEGH009_2_G";"2022-11-20 02:00:00";"8.77"
"Vijverwijk Veghel";"VEGH009_2_G";"2022-11-20 03:00:00";"8.77"
"Vijverwijk Veghel";"VEGH009_2_G";"2022-11-20 04:00:00";"8.77"
"Vijverwijk Veghel";"VEGH009_2_G";"2022-11-20 05:00:00";"8.78"
"Vijverwijk Veghel";"VEGH009_2_G";"2022-11-20 06:00:00";"8.78"
"Vijverwijk Veghel";"VEGH009_2_G";"2022-11-20 08:00:00";"8.77"
"Vijverwijk Veghel";"VEGH009_2_G";"2022-11-20 09:00:00";"8.77"
"Vijverwijk Veghel";"VEGH009_2_G";"2022-11-20 10:00:00";"8.77"
"Vijverwijk Veghel";"VEGH009_2_G";"2022-11-20 12:00:00";"8.77"
"Vijverwijk Veghel";"VEGH009_2_G";"2022-11-20 13:00:00";"8.77"
"Vijverwijk Veghel";"VEGH009_2_G";"2022-11-20 14:00:00";"8.77"
"Vijverwijk Veghel";"VEGH009_2_G";"2022-11-20 15:00:00";"8.77"
"Vijverwijk Veghel";"VEGH009_2_G";"2022-11-20 16:00:00";"8.77"
"Vijverwijk Veghel";"VEGH009_2_G";"2022-11-20 17:00:00";"8.78"
"Vijverwijk Veghel";"VEGH009_2_G";"2022-11-20 19:00:00";"8.79"
"Vijverwijk Veghel";"VEGH009_2_G";"2022-11-20 20:00:00";"8.79"
"Vijverwijk Veghel";"VEGH009_2_G";"2022-11-20 21:00:00";"8.79"
"Vijverwijk Veghel";"VEGH009_2_G";"2022-11-20 23:00:00";"8.79"
"Vijverwijk Veghel";"VEGH009_2_G";"2022-11-21 00:00:00";"8.79"
"Vijverwijk Veghel";"VEGH009_2_G";"2022-11-21 01:00:00";"8.79"
"Vijverwijk Veghel";"VEGH009_2_G";"2022-11-21 02:00:00";"8.79"
"Vijverwijk Veghel";"VEGH009_2_G";"2022-11-21 03:00:00";"8.79"
"Vijverwijk Veghel";"VEGH009_2_G";"2022-11-21 04:00:00";"8.79"
"Vijverwijk Veghel";"VEGH009_2_G";"2022-11-21 06:00:00";"8.79"
"Vijverwijk Veghel";"VEGH009_2_G";"2022-11-21 07:00:00";"8.79"
"Vijverwijk Veghel";"VEGH009_2_G";"2022-11-21 08:00:00";"8.79"
"Vijverwijk Veghel";"VEGH009_2_G";"2022-11-21 10:00:00";"8.8"
"Vijverwijk Veghel";"VEGH009_2_G";"2022-11-21 11:00:00";"8.8"
"Vijverwijk Veghel";"VEGH009_2_G";"2022-11-21 12:00:00";"8.8"
"Vijverwijk Veghel";"VEGH009_2_G";"2022-11-21 13:00:00";"8.8"
"Vijverwijk Veghel";"VEGH009_2_G";"2022-11-21 14:00:00";"8.8"
"Vijverwijk Veghel";"VEGH009_2_G";"2022-11-21 15:00:00";"8.8"
"Vijverwijk Veghel";"VEGH009_2_G";"2022-11-21 16:00:00";"8.8"
"Vijverwijk Veghel";"VEGH009_2_G";"2022-11-21 17:00:00";"8.8"
"Vijverwijk Veghel";"VEGH009_2_G";"2022-11-21 18:00:00";"8.8"
"Vijverwijk Veghel";"VEGH009_2_G";"2022-11-21 19:00:00";"8.8"
"Vijverwijk Veghel";"VEGH009_2_G";"2022-11-21 20:00:00";"8.81"
"Vijverwijk Veghel";"VEGH009_2_G";"2022-11-21 21:00:00";"8.81"
"Vijverwijk Veghel";"VEGH009_2_G";"2022-11-21 22:00:00";"8.81"
"Vijverwijk Veghel";"VEGH009_2_G";"2022-11-21 23:00:00";"8.81"
"Vijverwijk Veghel";"VEGH009_2_G";"2022-11-22 00:00:00";"8.82"
"Vijverwijk Veghel";"VEGH009_2_G";"2022-11-22 01:00:00";"8.82"
"Vijverwijk Veghel";"VEGH009_2_G";"2022-11-22 02:00:00";"8.82"
"Vijverwijk Veghel";"VEGH009_2_G";"2022-11-22 04:00:00";"8.82"
"Vijverwijk Veghel";"VEGH009_2_G";"2022-11-22 05:00:00";"8.82"
"Vijverwijk Veghel";"VEGH009_2_G";"2022-11-22 06:00:00";"8.82"
"Vijverwijk Veghel";"VEGH009_2_G";"2022-11-22 08:00:00";"8.82"
"Vijverwijk Veghel";"VEGH009_2_G";"2022-11-22 09:00:00";"8.82"
"Vijverwijk Veghel";"VEGH009_2_G";"2022-11-22 10:00:00";"8.82"
"Vijverwijk Veghel";"VEGH009_2_G";"2022-11-22 11:00:00";"8.81"
"Vijverwijk Veghel";"VEGH009_2_G";"2022-11-22 12:00:00";"8.82"
"Vijverwijk Veghel";"VEGH009_2_G";"2022-11-22 13:00:00";"8.82"
"Vijverwijk Veghel";"VEGH009_2_G";"2022-11-22 15:00:00";"8.82"
"Vijverwijk Veghel";"VEGH009_2_G";"2022-11-22 16:00:00";"8.81"
"Vijverwijk Veghel";"VEGH009_2_G";"2022-11-22 17:00:00";"8.82"
"Vijverwijk Veghel";"VEGH009_2_G";"2022-11-22 18:00:00";"8.81"
"Vijverwijk Veghel";"VEGH009_2_G";"2022-11-22 19:00:00";"8.82"
"Vijverwijk Veghel";"VEGH009_2_G";"2022-11-22 20:00:00";"8.82"
"Vijverwijk Veghel";"VEGH009_2_G";"2022-11-22 21:00:00";"8.82"
"Vijverwijk Veghel";"VEGH009_2_G";"2022-11-22 22:00:00";"8.81"
"Vijverwijk Veghel";"VEGH009_2_G";"2022-11-22 23:00:00";"8.82"
"Vijverwijk Veghel";"VEGH009_2_G";"2022-11-23 00:00:00";"8.81"
"Vijverwijk Veghel";"VEGH009_2_G";"2022-11-23 01:00:00";"8.81"
"Vijverwijk Veghel";"VEGH009_2_G";"2022-11-23 02:00:00";"8.81"
"Vijverwijk Veghel";"VEGH009_2_G";"2022-11-23 03:00:00";"8.82"
"Vijverwijk Veghel";"VEGH009_2_G";"2022-11-23 04:00:00";"8.81"
"Vijverwijk Veghel";"VEGH009_2_G";"2022-11-23 05:00:00";"8.81"
"Vijverwijk Veghel";"VEGH009_2_G";"2022-11-23 07:00:00";"8.82"
"Vijverwijk Veghel";"VEGH009_2_G";"2022-11-23 08:00:00";"8.81"
"Vijverwijk Veghel";"VEGH009_2_G";"2022-11-23 09:00:00";"8.82"
"Vijverwijk Veghel";"VEGH009_2_G";"2022-11-23 10:00:00";"8.81"
"Vijverwijk Veghel";"VEGH009_2_G";"2022-11-23 11:00:00";"8.82"
"Vijverwijk Veghel";"VEGH009_2_G";"2022-11-23 12:00:00";"8.82"
"Vijverwijk Veghel";"VEGH009_2_G";"2022-11-23 13:00:00";"8.82"
"Vijverwijk Veghel";"VEGH009_2_G";"2022-11-23 14:00:00";"8.82"
"Vijverwijk Veghel";"VEGH009_2_G";"2022-11-23 15:00:00";"8.82"
"Vijverwijk Veghel";"VEGH009_2_G";"2022-11-23 16:00:00";"8.82"
"Vijverwijk Veghel";"VEGH009_2_G";"2022-11-23 17:00:00";"8.83"
"Vijverwijk Veghel";"VEGH009_2_G";"2022-11-23 18:00:00";"8.84"
"Vijverwijk Veghel";"VEGH009_2_G";"2022-11-23 19:00:00";"8.83"
"Vijverwijk Veghel";"VEGH009_2_G";"2022-11-23 20:00:00";"8.83"
"Vijverwijk Veghel";"VEGH009_2_G";"2022-11-23 21:00:00";"8.83"
"Vijverwijk Veghel";"VEGH009_2_G";"2022-11-23 22:00:00";"8.83"
"Vijverwijk Veghel";"VEGH009_2_G";"2022-11-23 23:00:00";"8.83"
"Vijverwijk Veghel";"VEGH009_2_G";"2022-11-24 00:00:00";"8.83"
"Vijverwijk Veghel";"VEGH009_2_G";"2022-11-24 01:00:00";"8.83"
"Vijverwijk Veghel";"VEGH009_2_G";"2022-11-24 02:00:00";"8.83"
"Vijverwijk Veghel";"VEGH009_2_G";"2022-11-24 03:00:00";"8.82"
"Vijverwijk Veghel";"VEGH009_2_G";"2022-11-24 04:00:00";"8.83"
"Vijverwijk Veghel";"VEGH009_2_G";"2022-11-24 05:00:00";"8.83"
"Vijverwijk Veghel";"VEGH009_2_G";"2022-11-24 07:00:00";"8.82"
"Vijverwijk Veghel";"VEGH009_2_G";"2022-11-24 08:00:00";"8.83"
"Vijverwijk Veghel";"VEGH009_2_G";"2022-11-24 09:00:00";"8.82"
"Vijverwijk Veghel";"VEGH009_2_G";"2022-11-24 10:00:00";"8.82"
"Vijverwijk Veghel";"VEGH009_2_G";"2022-11-24 11:00:00";"8.83"
"Vijverwijk Veghel";"VEGH009_2_G";"2022-11-24 12:00:00";"8.83"
"Vijverwijk Veghel";"VEGH009_2_G";"2022-11-24 13:00:00";"8.83"
"Vijverwijk Veghel";"VEGH009_2_G";"2022-11-24 14:00:00";"8.83"
"Vijverwijk Veghel";"VEGH009_2_G";"2022-11-24 15:00:00";"8.83"
"Vijverwijk Veghel";"VEGH009_2_G";"2022-11-24 16:00:00";"8.83"
"Vijverwijk Veghel";"VEGH009_2_G";"2022-11-24 17:00:00";"8.83"
"Vijverwijk Veghel";"VEGH009_2_G";"2022-11-24 18:00:00";"8.83"
"Vijverwijk Veghel";"VEGH009_2_G";"2022-11-24 19:00:00";"8.83"
"Vijverwijk Veghel";"VEGH009_2_G";"2022-11-24 20:00:00";"8.83"
"Vijverwijk Veghel";"VEGH009_2_G";"2022-11-24 21:00:00";"8.83"
"Vijverwijk Veghel";"VEGH009_2_G";"2022-11-24 22:00:00";"8.83"
"Vijverwijk Veghel";"VEGH009_2_G";"2022-11-24 23:00:00";"8.83"
"Vijverwijk Veghel";"VEGH009_2_G";"2022-11-25 00:00:00";"8.83"
"Vijverwijk Veghel";"VEGH009_2_G";"2022-11-25 01:00:00";"8.83"
"Vijverwijk Veghel";"VEGH009_2_G";"2022-11-25 02:00:00";"8.83"
"Vijverwijk Veghel";"VEGH009_2_G";"2022-11-25 03:00:00";"8.83"
"Vijverwijk Veghel";"VEGH009_2_G";"2022-11-25 04:00:00";"8.83"
"Vijverwijk Veghel";"VEGH009_2_G";"2022-11-25 05:00:00";"8.83"
"Vijverwijk Veghel";"VEGH009_2_G";"2022-11-25 06:00:00";"8.83"
"Vijverwijk Veghel";"VEGH009_2_G";"2022-11-25 07:00:00";"8.83"
"Vijverwijk Veghel";"VEGH009_2_G";"2022-11-25 08:00:00";"8.83"
"Vijverwijk Veghel";"VEGH009_2_G";"2022-11-25 09:00:00";"8.83"
"Vijverwijk Veghel";"VEGH009_2_G";"2022-11-25 10:00:00";"8.83"
"Vijverwijk Veghel";"VEGH009_2_G";"2022-11-25 11:00:00";"8.83"
"Vijverwijk Veghel";"VEGH009_2_G";"2022-11-25 12:00:00";"8.83"
"Vijverwijk Veghel";"VEGH009_2_G";"2022-11-25 13:00:00";"8.83"
"Vijverwijk Veghel";"VEGH009_2_G";"2022-11-25 14:00:00";"8.83"
"Vijverwijk Veghel";"VEGH009_2_G";"2022-11-25 15:00:00";"8.83"
"Vijverwijk Veghel";"VEGH009_2_G";"2022-11-25 16:00:00";"8.83"
"Vijverwijk Veghel";"VEGH009_2_G";"2022-11-25 17:00:00";"8.83"
"Vijverwijk Veghel";"VEGH009_2_G";"2022-11-25 18:00:00";"8.82"
"Vijverwijk Veghel";"VEGH009_2_G";"2022-11-25 19:00:00";"8.82"
"Vijverwijk Veghel";"VEGH009_2_G";"2022-11-25 20:00:00";"8.82"
"Vijverwijk Veghel";"VEGH009_2_G";"2022-11-25 21:00:00";"8.82"
"Vijverwijk Veghel";"VEGH009_2_G";"2022-11-25 22:00:00";"8.82"
"Vijverwijk Veghel";"VEGH009_2_G";"2022-11-25 23:00:00";"8.82"
"Vijverwijk Veghel";"VEGH009_2_G";"2022-11-26 00:00:00";"8.82"
"Vijverwijk Veghel";"VEGH009_2_G";"2022-11-26 01:00:00";"8.82"
"Vijverwijk Veghel";"VEGH009_2_G";"2022-11-26 02:00:00";"8.82"
"Vijverwijk Veghel";"VEGH009_2_G";"2022-11-26 03:00:00";"8.82"
"Vijverwijk Veghel";"VEGH009_2_G";"2022-11-26 04:00:00";"8.82"
"Vijverwijk Veghel";"VEGH009_2_G";"2022-11-26 05:00:00";"8.82"
"Vijverwijk Veghel";"VEGH009_2_G";"2022-11-26 06:00:00";"8.82"
"Vijverwijk Veghel";"VEGH009_2_G";"2022-11-26 07:00:00";"8.82"
"Vijverwijk Veghel";"VEGH009_2_G";"2022-11-26 08:00:00";"8.82"
"Vijverwijk Veghel";"VEGH009_2_G";"2022-11-26 09:00:00";"8.82"
"Vijverwijk Veghel";"VEGH009_2_G";"2022-11-26 10:00:00";"8.82"
"Vijverwijk Veghel";"VEGH009_2_G";"2022-11-26 11:00:00";"8.82"
"Vijverwijk Veghel";"VEGH009_2_G";"2022-11-26 12:00:00";"8.82"
"Vijverwijk Veghel";"VEGH009_2_G";"2022-11-26 13:00:00";"8.82"
"Vijverwijk Veghel";"VEGH009_2_G";"2022-11-26 14:00:00";"8.82"
"Vijverwijk Veghel";"VEGH009_2_G";"2022-11-26 15:00:00";"8.82"
"Vijverwijk Veghel";"VEGH009_2_G";"2022-11-26 16:00:00";"8.82"
"Vijverwijk Veghel";"VEGH009_2_G";"2022-11-26 17:00:00";"8.82"
"Vijverwijk Veghel";"VEGH009_2_G";"2022-11-26 19:00:00";"8.82"
"Vijverwijk Veghel";"VEGH009_2_G";"2022-11-26 20:00:00";"8.82"
"Vijverwijk Veghel";"VEGH009_2_G";"2022-11-26 21:00:00";"8.82"
"Vijverwijk Veghel";"VEGH009_2_G";"2022-11-26 22:00:00";"8.82"
"Vijverwijk Veghel";"VEGH009_2_G";"2022-11-26 23:00:00";"8.82"
"Vijverwijk Veghel";"VEGH009_2_G";"2022-11-27 00:00:00";"8.83"
"Vijverwijk Veghel";"VEGH009_2_G";"2022-11-27 01:00:00";"8.82"
"Vijverwijk Veghel";"VEGH009_2_G";"2022-11-27 02:00:00";"8.82"
"Vijverwijk Veghel";"VEGH009_2_G";"2022-11-27 03:00:00";"8.83"
"Vijverwijk Veghel";"VEGH009_2_G";"2022-11-27 04:00:00";"8.83"
"Vijverwijk Veghel";"VEGH009_2_G";"2022-11-27 05:00:00";"8.83"
"Vijverwijk Veghel";"VEGH009_2_G";"2022-11-27 06:00:00";"8.83"
"Vijverwijk Veghel";"VEGH009_2_G";"2022-11-27 07:00:00";"8.83"
"Vijverwijk Veghel";"VEGH009_2_G";"2022-11-27 08:00:00";"8.83"
"Vijverwijk Veghel";"VEGH009_2_G";"2022-11-27 09:00:00";"8.83"
"Vijverwijk Veghel";"VEGH009_2_G";"2022-11-27 10:00:00";"8.83"
"Vijverwijk Veghel";"VEGH009_2_G";"2022-11-27 11:00:00";"8.83"
"Vijverwijk Veghel";"VEGH009_2_G";"2022-11-27 12:00:00";"8.83"
"Vijverwijk Veghel";"VEGH009_2_G";"2022-11-27 13:00:00";"8.83"
"Vijverwijk Veghel";"VEGH009_2_G";"2022-11-27 14:00:00";"8.83"
"Vijverwijk Veghel";"VEGH009_2_G";"2022-11-27 15:00:00";"8.83"
"Vijverwijk Veghel";"VEGH009_2_G";"2022-11-27 16:00:00";"8.83"